NI4CE-14 Weather Reports


Display with metric or nautical units.
time (UTC)temp
F
wind
direction
speed
MPH
gust
MPH
rain 1hr
in
rain 24hr
in
rain mn
in
humidity
%
barometer
mb
20260505200814 86 324 6.0 10.0 0.00 0.00 0.00 100 1013.1
20260505200314 86 63 4.0 13.0 0.00 0.00 0.00 100 1013.0
20260505195814 86 338 8.0 11.0 0.00 0.00 0.00 100 1013.1
20260505195314 87 331 5.0 9.0 0.00 0.00 0.00 100 1013.0
20260505194814 86 348 6.0 9.0 0.00 0.00 0.00 100 1013.1
20260505194314 87 338 7.0 10.0 0.00 0.00 0.00 100 1013.1
20260505193814 86 336 8.0 13.0 0.00 0.00 0.00 100 1013.2
20260505193452 87 320 6.0 14.0 0.00 0.00 0.00 100 1013.3
20260505193314 87 320 6.0 14.0 0.00 0.00 0.00 100 1013.3
20260505192814 87 358 2.0 10.0 0.00 0.00 0.00 100 1013.3
20260505192315 87 334 0.0 12.0 0.00 0.00 0.00 100 1013.3
20260505191814 87 352 9.0 10.0 0.00 0.00 0.00 100 1013.2
20260505191314 87 40 4.0 9.0 0.00 0.00 0.00 100 1013.3
20260505190814 87 323 6.0 12.0 0.00 0.00 0.00 100 1013.3
20260505190451 87 47 5.0 12.0 0.00 0.00 0.00 100 1013.3
20260505190314 87 47 5.0 12.0 0.00 0.00 0.00 100 1013.3
20260505185918 87 32 3.0 10.0 0.00 0.00 0.00 100 1013.3
20260505185814 87 32 3.0 10.0 0.00 0.00 0.00 100 1013.3
20260505185431 87 36 3.0 13.0 0.00 0.00 0.00 100 1013.2
20260505185314 87 36 3.0 13.0 0.00 0.00 0.00 100 1013.2
20260505184814 87 336 9.0 12.0 0.00 0.00 0.00 100 1013.3
20260505184314 87 307 5.0 10.0 0.00 0.00 0.00 100 1013.4
20260505183814 87 258 9.0 10.0 0.00 0.00 0.00 100 1013.4
20260505183314 87 352 9.0 12.0 0.00 0.00 0.00 100 1013.5
20260505182814 87 338 3.0 8.0 0.00 0.00 0.00 100 1013.5
20260505182314 87 354 6.0 9.0 0.00 0.00 0.00 100 1013.5
20260505181814 86 329 7.0 9.0 0.00 0.00 0.00 100 1013.6
20260505181314 86 1 1.0 8.0 0.00 0.00 0.00 100 1013.5
20260505180814 86 1 4.0 8.0 0.00 0.00 0.00 100 1013.5
20260505180314 86 7 3.0 6.0 0.00 0.00 0.00 100 1013.6
20260505175814 86 71 3.0 9.0 0.00 0.00 0.00 100 1013.8
20260505175314 87 351 4.0 8.0 0.00 0.00 0.00 100 1013.7
20260505174814 87 350 5.0 7.0 0.00 0.00 0.00 100 1013.8
20260505174314 87 345 0.0 6.0 0.00 0.00 0.00 100 1013.8
20260505173814 87 194 0.0 4.0 0.00 0.00 0.00 100 1013.8
20260505173314 87 25 0.0 7.0 0.00 0.00 0.00 100 1013.9
20260505172814 87 284 0.0 3.0 0.00 0.00 0.00 100 1014.0
20260505172314 86 270 2.0 4.0 0.00 0.00 0.00 100 1014.0
20260505171814 86 357 3.0 6.0 0.00 0.00 0.00 100 1014.0
20260505171315 86 352 6.0 6.0 0.00 0.00 0.00 100 1014.0
20260505170814 86 319 2.0 7.0 0.00 0.00 0.00 100 1014.1
20260505170314 86 358 3.0 4.0 0.00 0.00 0.00 100 1014.2
20260505165315 86 270 0.0 8.0 0.00 0.00 0.00 100 1014.3
20260505164815 86 1 3.0 8.0 0.00 0.00 0.00 100 1014.3
20260505164315 86 291 0.0 1.0 0.00 0.00 0.00 100 1014.4
20260505164013 86 265 0.0 3.0 0.00 0.00 0.00 100 1014.4
20260505163815 86 265 0.0 3.0 0.00 0.00 0.00 100 1014.4
20260505163315 86 1 1.0 5.0 0.00 0.00 0.00 100 1014.4
20260505162815 86 306 0.0 2.0 0.00 0.00 0.00 100 1014.4
20260505162525 87 253 0.0 4.0 0.00 0.00 0.00 100 1014.5
20260505162315 87 253 0.0 4.0 0.00 0.00 0.00 100 1014.5
20260505161815 87 216 3.0 3.0 0.00 0.00 0.00 100 1014.4
20260505161315 87 182 0.0 3.0 0.00 0.00 0.00 100 1014.4
20260505160815 87 160 0.0 0.0 0.00 0.00 0.00 100 1014.4
20260505160315 87 160 0.0 2.0 0.00 0.00 0.00 100 1014.3
20260505153315 86 202 4.0 5.0 0.00 0.00 0.00 100 1014.3
20260505152913 85 208 0.0 5.0 0.00 0.00 0.00 100 1014.3
20260505152815 85 208 0.0 5.0 0.00 0.00 0.00 100 1014.3
20260505152315 85 168 3.0 5.0 0.00 0.00 0.00 100 1014.4
20260505151815 85 243 1.0 6.0 0.00 0.00 0.00 100 1014.4
20260505151315 86 198 3.0 7.0 0.00 0.00 0.00 100 1014.5
20260505150815 86 206 1.0 5.0 0.00 0.00 0.00 100 1012.3
20260505150315 86 225 5.0 8.0 0.00 0.00 0.00 100 1014.4
20260505140315 83 194 3.0 8.0 0.00 0.00 0.00 100 1014.3
20260505124815 80 150 5.0 9.0 0.00 0.00 0.00 100 1013.8
20260505124315 79 163 6.0 6.0 0.00 0.00 0.00 100 1013.8
20260505123815 79 174 2.0 10.0 0.00 0.00 0.00 100 1013.8
20260505123315 79 226 0.0 6.0 0.00 0.00 0.00 100 1013.7
20260505123005 77 198 0.0 5.0 0.00 0.00 0.00 100 1013.8
20260505122815 78 184 2.0 5.0 0.00 0.00 0.00 100 1013.7
20260505122315 78 182 2.0 4.0 0.00 0.00 0.00 100 1013.8
20260505121815 77 198 0.0 5.0 0.00 0.00 0.00 100 1013.8
20260505121315 77 177 0.0 7.0 0.00 0.00 0.00 100 1013.8
20260505120815 77 154 0.0 3.0 0.00 0.00 0.00 100 1013.8
20260505120315 76 147 0.0 4.0 0.00 0.00 0.00 100 1013.8
20260505120025 76 168 1.0 1.0 0.00 0.00 0.00 100 1013.8
20260505115815 76 149 0.0 1.0 0.00 0.00 0.00 100 1013.8
20260505115315 76 108 0.0 3.0 0.00 0.00 0.00 100 1013.8
20260505114815 76 144 0.0 3.0 0.00 0.00 0.00 100 1013.9
20260505114315 76 168 1.0 1.0 0.00 0.00 0.00 100 1013.8
20260505113815 76 135 0.0 2.0 0.00 0.00 0.00 100 1013.9
20260505113315 76 194 0.0 0.0 0.00 0.00 0.00 100 1013.8
20260505112815 76 194 0.0 0.0 0.00 0.00 0.00 100 1013.6
20260505112315 76 194 0.0 0.0 0.00 0.00 0.00 100 1013.6
20260505112230 75 194 0.0 0.0 0.00 0.00 0.00 100 1013.4
20260505111815 75 194 0.0 0.0 0.00 0.00 0.00 100 1013.4
20260505111315 76 194 0.0 0.0 0.00 0.00 0.00 100 1013.2
20260505110815 76 195 0.0 0.0 0.00 0.00 0.00 100 1013.1
20260505110315 76 142 0.0 1.0 0.00 0.00 0.00 100 1012.9
20260505101815 76 113 0.0 2.0 0.00 0.00 0.00 100 1012.6
20260505101315 76 125 0.0 2.0 0.00 0.00 0.00 100 1012.6
20260505100815 76 170 0.0 2.0 0.00 0.00 0.00 100 1012.7
20260505100315 76 219 0.0 2.0 0.00 0.00 0.00 100 1012.7
20260505095815 76 56 0.0 0.0 0.00 0.00 0.00 100 1012.7
20260505095315 76 56 0.0 0.0 0.00 0.00 0.00 100 1012.7
20260505094815 76 56 0.0 3.0 0.00 0.00 0.00 100 1012.5
20260505094315 76 156 0.0 2.0 0.00 0.00 0.00 100 1012.5
20260505093815 76 146 0.0 0.0 0.00 0.00 0.00 100 1012.5
20260505093315 76 146 0.0 0.0 0.00 0.00 0.00 100 1012.6
20260505093016 76 146 0.0 0.0 0.00 0.00 0.00 100 1012.7
20260505092815 76 146 0.0 0.0 0.00 0.00 0.00 100 1012.7
20260505092315 76 146 0.0 0.0 0.00 0.00 0.00 100 1012.7
20260505091815 76 146 0.0 0.0 0.00 0.00 0.00 100 1012.7
20260505091315 76 146 0.0 1.0 0.00 0.00 0.00 100 1012.5
20260505090815 76 126 0.0 1.0 0.00 0.00 0.00 100 1012.5
20260505090315 76 61 0.0 0.0 0.00 0.00 0.00 100 1012.5
20260505085815 76 61 0.0 1.0 0.00 0.00 0.00 100 1012.6
20260505085315 76 133 0.0 0.0 0.00 0.00 0.00 100 1012.5
20260505084815 76 158 0.0 2.0 0.00 0.00 0.00 100 1012.4
20260505084315 76 168 0.0 0.0 0.00 0.00 0.00 100 1012.5
20260505083815 76 164 0.0 3.0 0.00 0.00 0.00 100 1012.5
20260505083526 76 67 0.0 1.0 0.00 0.00 0.00 100 1012.5
20260505083315 76 67 0.0 1.0 0.00 0.00 0.00 100 1012.5
20260505082815 76 136 0.0 0.0 0.00 0.00 0.00 100 1012.3
20260505082315 76 140 0.0 0.0 0.00 0.00 0.00 100 1012.3
20260505082007 77 188 1.0 1.0 0.00 0.00 0.00 100 1012.4
20260505081815 77 192 0.0 2.0 0.00 0.00 0.00 100 1012.3
20260505081315 77 188 1.0 1.0 0.00 0.00 0.00 100 1012.4
20260505080815 77 165 0.0 0.0 0.00 0.00 0.00 100 1012.4
20260505080315 77 165 0.0 1.0 0.00 0.00 0.00 100 1012.4
20260505075815 77 153 0.0 4.0 0.00 0.00 0.00 100 1012.3
20260505075315 77 216 0.0 1.0 0.00 0.00 0.00 100 1012.3
20260505074815 77 177 0.0 1.0 0.00 0.00 0.00 100 1012.2
20260505074713 77 95 0.0 2.0 0.00 0.00 0.00 100 1012.2
20260505074315 77 95 0.0 2.0 0.00 0.00 0.00 100 1012.2
20260505073815 77 191 0.0 2.0 0.00 0.00 0.00 100 1012.3
20260505073315 77 125 0.0 4.0 0.00 0.00 0.00 100 1012.4
20260505072815 77 140 0.0 1.0 0.00 0.00 0.00 100 1012.4
20260505072315 77 135 0.0 1.0 0.00 0.00 0.00 100 1012.4
20260505071815 77 127 0.0 1.0 0.00 0.00 0.00 100 1012.5
20260505071542 77 158 0.0 3.0 0.00 0.00 0.00 100 1012.5
20260505071315 77 158 0.0 3.0 0.00 0.00 0.00 100 1012.5
20260505070815 77 104 0.0 2.0 0.00 0.00 0.00 100 1011.9
20260505070315 77 160 0.0 0.0 0.00 0.00 0.00 100 1012.6
20260505070302 77 135 0.0 3.0 0.00 0.00 0.00 100 1012.7
20260505070135 77 160 0.0 4.0 0.00 0.00 0.00 100 1012.7
20260505065815 77 160 0.0 4.0 0.00 0.00 0.00 100 1012.7
20260505065710 77 135 0.0 3.0 0.00 0.00 0.00 100 1012.7
20260505065315 77 135 0.0 3.0 0.00 0.00 0.00 100 1012.7
20260505064815 77 95 0.0 2.0 0.00 0.00 0.00 100 1012.7
20260505064315 78 104 0.0 1.0 0.00 0.00 0.00 100 1012.7
20260505063815 77 115 0.0 3.0 0.00 0.00 0.00 100 1012.7
20260505063315 78 149 0.0 2.0 0.00 0.00 0.00 100 1012.8
20260505062815 78 85 0.0 1.0 0.00 0.00 0.00 100 1012.9
20260505062315 78 136 0.0 4.0 0.00 0.00 0.00 100 1012.9
20260505061816 78 130 0.0 4.0 0.00 0.00 0.00 100 1013.0
20260505061315 78 140 0.0 0.0 0.00 0.00 0.00 100 1013.0
20260505060815 78 140 0.0 0.0 0.00 0.00 0.00 100 1013.1
20260505060316 78 140 0.0 0.0 0.00 0.00 0.00 100 1013.1
20260505055815 78 140 0.0 0.0 0.00 0.00 0.00 100 1013.4
20260505055316 78 140 0.0 3.0 0.00 0.00 0.00 100 1013.5
20260505054816 78 153 3.0 3.0 0.00 0.00 0.00 100 1013.5
20260505054316 78 137 0.0 1.0 0.00 0.00 0.00 100 1013.6
20260505053816 78 139 0.0 2.0 0.00 0.00 0.00 100 1013.7
20260505053316 78 139 0.0 0.0 0.00 0.00 0.00 100 1013.8
20260505052816 78 139 0.0 1.0 0.00 0.00 0.00 100 1013.8
20260505052316 78 113 0.0 0.0 0.00 0.00 0.00 100 1013.8
20260505051816 79 123 0.0 1.0 0.00 0.00 0.00 100 1013.8
20260505051316 79 139 0.0 2.0 0.00 0.00 0.00 100 1013.8
20260505050816 79 156 0.0 1.0 0.00 0.00 0.00 100 1013.9
20260505050316 79 132 0.0 0.0 0.00 0.00 0.00 100 1013.9
20260505041316 80 165 0.0 0.0 0.00 0.00 0.00 100 1014.5
20260505041032 80 165 0.0 0.0 0.00 0.00 0.00 100 1014.3
20260505040833 80 165 0.0 0.0 0.00 0.00 0.00 100 1014.3
20260505040816 80 165 0.0 0.0 0.00 0.00 0.00 100 1014.4
20260505040316 80 165 0.0 0.0 0.00 0.00 0.00 100 1014.3
20260505035816 80 165 0.0 3.0 0.00 0.00 0.00 100 1014.3
20260505035316 80 243 0.0 4.0 0.00 0.00 0.00 100 1014.1
20260505034816 80 113 3.0 7.0 0.00 0.00 0.00 100 1014.2
20260505034316 80 178 0.0 3.0 0.00 0.00 0.00 100 1014.2
20260505033816 80 209 1.0 4.0 0.00 0.00 0.00 100 1014.2
20260505033316 80 274 0.0 4.0 0.00 0.00 0.00 100 1014.3
20260505032816 80 168 1.0 1.0 0.00 0.00 0.00 100 1014.3
20260505032316 80 140 0.0 2.0 0.00 0.00 0.00 100 1014.2
20260505032044 80 154 1.0 2.0 0.00 0.00 0.00 100 1014.2
20260505031816 80 154 1.0 2.0 0.00 0.00 0.00 100 1014.2
20260505031316 80 119 0.0 3.0 0.00 0.00 0.00 100 1014.2
20260505030816 81 198 1.0 3.0 0.00 0.00 0.00 100 1014.2
20260505030700 81 180 1.0 3.0 0.00 0.00 0.00 100 1014.4
20260505030316 81 122 0.0 3.0 0.00 0.00 0.00 100 1014.1
20260505025816 81 168 2.0 4.0 0.00 0.00 0.00 100 1014.0
20260505025316 81 127 0.0 6.0 0.00 0.00 0.00 100 1014.2
20260505024816 81 180 1.0 3.0 0.00 0.00 0.00 100 1014.4
20260505024316 81 154 0.0 1.0 0.00 0.00 0.00 100 1014.3
20260505023816 81 63 0.0 2.0 0.00 0.00 0.00 100 1014.2
20260505023316 81 156 0.0 3.0 0.00 0.00 0.00 100 1014.1
20260505022816 81 43 0.0 5.0 0.00 0.00 0.00 100 1014.0
20260505022316 81 59 0.0 2.0 0.00 0.00 0.00 100 1014.0
20260505021816 81 53 0.0 4.0 0.00 0.00 0.00 100 1014.0
20260505021316 81 11 0.0 0.0 0.00 0.00 0.00 100 1013.9
20260505020816 81 11 0.0 4.0 0.00 0.00 0.00 100 1013.9
20260505020723 81 60 0.0 0.0 0.00 0.00 0.00 100 1013.8
20260505020316 81 60 0.0 0.0 0.00 0.00 0.00 100 1013.8
20260505015816 81 60 0.0 1.0 0.00 0.00 0.00 100 1013.8
20260505015316 81 87 0.0 2.0 0.00 0.00 0.00 100 1013.8
20260505015215 81 160 0.0 2.0 0.00 0.00 0.00 100 1013.7
20260505014816 81 160 0.0 2.0 0.00 0.00 0.00 100 1013.7
20260505014316 81 120 0.0 0.0 0.00 0.00 0.00 100 1013.6
20260505013816 82 120 0.0 0.0 0.00 0.00 0.00 100 1013.5
20260505013316 82 120 0.0 4.0 0.00 0.00 0.00 100 1013.4
20260505012816 82 37 0.0 4.0 0.00 0.00 0.00 100 1013.3
20260505012316 82 60 0.0 5.0 0.00 0.00 0.00 100 1013.0
20260505011816 82 18 0.0 3.0 0.00 0.00 0.00 100 1013.2
20260505011337 82 28 1.0 3.0 0.00 0.00 0.00 100 1013.1
20260505011316 82 29 0.0 6.0 0.00 0.00 0.00 100 1013.1
20260505010816 82 28 1.0 3.0 0.00 0.00 0.00 100 1013.1
20260505010316 82 64 3.0 4.0 0.00 0.00 0.00 100 1011.1
20260505005816 82 267 0.0 4.0 0.00 0.00 0.00 100 1011.7
20260505005316 82 14 0.0 3.0 0.00 0.00 0.00 100 1011.1
20260505004816 82 64 0.0 4.0 0.00 0.00 0.00 100 1011.0
20260505004316 82 12 0.0 4.0 0.00 0.00 0.00 100 1010.7
20260505003942 82 47 2.0 5.0 0.00 0.00 0.00 100 1012.6
20260505003816 82 14 0.0 5.0 0.00 0.00 0.00 100 1011.0
20260505003316 82 324 0.0 3.0 0.00 0.00 0.00 100 1010.9
20260505002816 82 47 2.0 5.0 0.00 0.00 0.00 100 1012.6
20260505002316 82 32 4.0 4.0 0.00 0.00 0.00 100 1012.6
20260505001816 82 25 4.0 7.0 0.00 0.00 0.00 100 1012.5
20260505001316 82 67 2.0 7.0 0.00 0.00 0.00 100 1012.5
20260505000816 82 29 4.0 7.0 0.00 0.00 0.00 100 1010.5
20260505000316 82 68 5.0 5.0 0.00 0.00 0.00 100 1011.9
20260504235816 82 1 1.0 5.0 0.00 0.00 0.00 100 1011.2
20260504235316 83 61 1.0 5.0 0.00 0.00 0.00 100 1011.4
20260504234816 83 326 1.0 6.0 0.00 0.00 0.00 100 1010.4
20260504234316 83 22 2.0 6.0 0.00 0.00 0.00 100 1010.3
20260504233816 83 82 1.0 7.0 0.00 0.00 0.00 100 1010.1
20260504233316 83 25 1.0 4.0 0.00 0.00 0.00 100 1010.4
20260504232816 83 329 0.0 6.0 0.00 0.00 0.00 100 1012.0
20260504232316 83 341 0.0 5.0 0.00 0.00 0.00 100 1011.9
20260504231816 83 8 1.0 8.0 0.00 0.00 0.00 100 1012.0
20260504231316 83 1 3.0 10.0 0.00 0.00 0.00 100 1012.0
20260504230816 84 43 1.0 8.0 0.00 0.00 0.00 100 1011.9
20260504230316 84 331 4.0 8.0 0.00 0.00 0.00 100 1011.8
20260504225816 84 358 2.0 7.0 0.00 0.00 0.00 100 1011.7
20260504225316 84 43 2.0 9.0 0.00 0.00 0.00 100 1010.5
20260504224816 84 59 8.0 8.0 0.00 0.00 0.00 100 1012.0
20260504224316 84 313 1.0 8.0 0.00 0.00 0.00 100 1011.9
20260504223816 84 49 3.0 9.0 0.00 0.00 0.00 100 1012.0
20260504223316 85 42 4.0 9.0 0.00 0.00 0.00 100 1011.9
20260504222816 85 19 6.0 9.0 0.00 0.00 0.00 100 1011.8
20260504222316 85 352 1.0 9.0 0.00 0.00 0.00 100 1011.8
20260504221816 85 347 6.0 11.0 0.00 0.00 0.00 100 1011.9
20260504221316 85 50 6.0 11.0 0.00 0.00 0.00 100 1012.1
20260504220816 85 358 5.0 12.0 0.00 0.00 0.00 100 1012.1
20260504220316 85 302 4.0 9.0 0.00 0.00 0.00 100 1012.2
20260504215816 85 358 3.0 12.0 0.00 0.00 0.00 100 1012.2
20260504215316 85 25 11.0 11.0 0.00 0.00 0.00 100 1012.1
20260504214816 85 36 1.0 8.0 0.00 0.00 0.00 100 1012.0
20260504214316 85 358 5.0 10.0 0.00 0.00 0.00 100 1010.7
20260504213816 85 8 8.0 11.0 0.00 0.00 0.00 100 1012.0
20260504213316 85 29 10.0 11.0 0.00 0.00 0.00 100 1012.0
20260504212816 85 341 6.0 12.0 0.00 0.00 0.00 100 1012.0
20260504212316 85 40 5.0 13.0 0.00 0.00 0.00 100 1012.0
20260504211816 85 56 1.0 11.0 0.00 0.00 0.00 100 1012.0
20260504211316 85 66 5.0 12.0 0.00 0.00 0.00 100 1011.9
20260504210816 85 60 6.0 11.0 0.00 0.00 0.00 100 1012.0
20260504210316 85 2 8.0 12.0 0.00 0.00 0.00 100 1012.1
20260504205816 86 42 6.0 12.0 0.00 0.00 0.00 100 1012.1
20260504205316 86 25 8.0 12.0 0.00 0.00 0.00 100 1012.1
20260504204816 86 15 3.0 12.0 0.00 0.00 0.00 100 1012.1
20260504204316 86 9 7.0 12.0 0.00 0.00 0.00 100 1012.0
20260504203816 86 358 7.0 10.0 0.00 0.00 0.00 100 1012.1
20260504203316 85 47 9.0 11.0 0.00 0.00 0.00 100 1012.1
20260504203152 86 32 8.0 11.0 0.00 0.00 0.00 100 1012.1
20260504202816 86 32 8.0 11.0 0.00 0.00 0.00 100 1012.1
20260504202316 86 12 4.0 10.0 0.00 0.00 0.00 100 1012.0
20260504201816 86 8 2.0 12.0 0.00 0.00 0.00 100 1012.1
20260504201316 86 47 9.0 9.0 0.00 0.00 0.00 100 1012.1